Location: Hurstbourne Priors
(51.2000°N, 1.3667°W)
Time: 19:56:46
(UTC+00:00)

Transit 4A - Pass Details

Date: 25 April 2021
Orbit: 870 x 974 km, 66.8° (Epoch: 09 May)

Event Time Altitude Azimuth Distance (km) Brightness Sun altitude
Rises 01:42:00 0° 278° (W) 3,592 10.8 -22.1°
Reaches altitude 10° 01:45:14 10° 294° (WNW) 2,630 10.2 -21.9°
Maximum altitude 01:49:46 21° 343° (NNW) 1,925 10.0 -21.5°
Drops below altitude 10° 01:54:15 10° 31° (NNE) 2,580 11.4 -21.2°
Sets 01:57:23 0° 47° (NE) 3,505 12.2 -21.0°
